Regional Weather Roundup
Issued by NWS

Home | Current Version | Previous Version | Graphics & Text | Print | Product List | Glossary On
Versions: 1 2 3 4 5 6 7 8 9 10 11 12 13 14 15 16 17 18 19 20 21 22 23 24 25 26 27 28 29 30 31 32 33 34 35 36 37 38 39 40 41 42 43 44 45 46 47 48 49 50
000
ASUS45 KTFX 211710
RWRMT
MONTANA REGIONAL WEATHER ROUNDUP
NATIONAL WEATHER SERVICE GREAT FALLS MT
1000 AM MST WED FEB 21 2018

NOTE: "FAIR" INDICATES FEW OR NO CLOUDS BELOW 12000 FEET WITH NO
SIGNIFICANT WEATHER AND/OR OBSTRUCTIONS TO VISIBILITY.

MTZ001>007-043-211800-
WEST OF THE DIVIDE

CITY           SKY/WX    TMP DP  RH WIND       PRES   REMARKS
KALISPELL      CLOUDY     1  -3  83 CALM      30.21R
MISSOULA       CLOUDY     7  -1  70 SE6       30.20S WCI  -3
BUTTE          FAIR      -4 -11  72 CALM      30.00S
MULLAN PASS    FAIR       4   3  96 VRB3      29.92R
ANACONDA         N/A      3  -6  66 CALM      30.03F
DEER LODGE       N/A     -2  -8  78 W3        30.09S
HAMILTON         N/A      9   0  66 MISG      30.16R
PLAINS           N/A     -6 -19  53 CALM      30.26R VSB 0
RONAN            N/A      0  -4  85 CALM      30.22R
$$

MTZ008-052>055-211800-
SOUTHWEST MONTANA

CITY           SKY/WX    TMP DP  RH WIND       PRES   REMARKS
BOZEMAN        PTSUNNY   -4 -11  72 N7        30.09S WCI -18
DILLON         FAIR       1  -3  83 S8        30.03S WCI -13
ENNIS          MOSUNNY   10   0  61 S16       30.07S WCI  -7
W YELLOWSTONE  LGT SNOW  -4  -8  84 NE3       29.99S
THREE FORKS      N/A      0  -9  65 CALM      30.07F
TWIN BRIDGES     N/A      6  -6  57 CALM      30.04R
$$

MTZ009-010-012-014-046-048-049-054-211800-
EAST SLOPES AND CENTRAL MONTANA

CITY           SKY/WX    TMP DP  RH WIND       PRES   REMARKS
CUT BANK       FAIR      -7 -12  79 S3        29.97F
GREAT FALLS    FAIR       5  -4  66 SW16      30.03F WCI -14
MALMSTROM AFB  MOSUNNY   -3  -9  77 SW6       30.07F WCI -15
HELENA         FAIR      -2 -10  69 N3        30.12F
AUGUSTA          N/A    N/A N/A N/A MISG        N/A
CHOTEAU          N/A      5  -9  51 SW5       30.01S
RAYNESFORD     FAIR       4  -5  67 CALM      30.01F
WHITE SULPHUR    N/A     -6 -13  71 VRB5G12   29.99R
$$

MTZ011-013-016-021-045-047-050-051-211800-
NORTH CENTRAL MONTANA

CITY           SKY/WX    TMP DP  RH WIND       PRES   REMARKS
HAVRE          FAIR      -9 -16  71 E3        30.16S
LEWISTOWN      FAIR      -1  -7  75 E5        30.03F
N BAR RANCH    FAIR       7  -6  56 S5        30.02F
CHINOOK          N/A    -15 -18  84 CALM      30.20S
GEYSER         FAIR       4  -5  66 SW6       30.01F WCI  -7
STANFORD       FAIR       1  -7  67 CALM      29.99F
$$

MTZ017>020-022>027-061-062-211800-
NORTHEAST MONTANA

CITY           SKY/WX    TMP DP  RH WIND       PRES   REMARKS
GLASGOW        CLOUDY   -11 -17  75 E14       30.25R WCI -33
GLENDIVE       FAIR      -3 -12  65 S10       30.30R WCI -20
JORDAN           N/A    -17 -21  82 CALM      30.20F
MALTA          SUNNY    -15 -20  76 E9        30.22S WCI -33
SIDNEY         FAIR      -4 -12  68 S9        30.35  WCI -20
WOLF POINT     PTSUNNY  -10 -14  82 CALM      30.31F
PLENTYWOOD       N/A     -9 -17  70 SE6       30.27R WCI -23
POPLAR           N/A     -9 -18  64 NW3       30.31F
SCOBEY           N/A    -10 -20  61 CALM      30.19S
$$

MTZ028>42-056>058-211800-
SOUTHCENTRAL AND SOUTHEAST MONTANA

CITY           SKY/WX    TMP DP  RH WIND       PRES   REMARKS
BAKER          FAIR      -9 -14  78 E5        30.26S
BILLINGS       FAIR       0  -8  69 S10       30.13S WCI -16
LIVINGSTON     CLOUDY    10   0  63 NW20G25   30.02F WCI  -9
MILES CITY     FAIR      -9 -15  75 S13       30.26S WCI -29
BIG TIMBER     SUNNY     -8 -13  77 E5        30.08S
EKALAKA          N/A     12  -8  40 SE12      30.14S WCI  -2
FORSYTH          N/A    -11 -17  77 CALM      30.24R
LAUREL           N/A      1  -8  66 CALM      30.16S
$$

REGIONAL REPORTS...DAKOTAS

CITY           SKY/WX    TMP DP  RH WIND       PRES   REMARKS
WILLISTON      FAIR      -2 -11  65 SW6       30.33F WCI -14
MINOT          FAIR       4  -6  63 W22       30.33R WCI -18
DICKINSON      FAIR       5  -7  57 SW10      30.28S WCI -10
BEACH          FAIR       0  -9  65 S8        30.31R WCI -15
CROSBY         FAIR       0  -9  65 SW3       30.30S
TIOGA          FAIR      -4  -9  77 W9        30.31R WCI -20
WATFORD CITY   FAIR       1  -9  60 SW7       30.32F WCI -11
BISMARCK       FAIR       5  -8  55 SW9       30.43R WCI  -9
GRAND FORKS    FAIR       4  -5  66 SW8       30.46R WCI  -9
FARGO          FAIR       2  -6  69 S10       30.52R WCI -14
BUFFALO SD       N/A     -5 -14  65 SE6       30.20R WCI -18
RAPID CITY     FAIR       0  -4  83 CALM      30.27F
$$

REGIONAL REPORTS...WYOMING/IDAHO/WASHINGTON

CITY           SKY/WX    TMP DP  RH WIND       PRES   REMARKS
GILLETTE       FAIR       7  -7  52 VRB7      30.14F WCI  -5
SHERIDAN       FAIR      -4 -12  68 CALM      30.14S
BUFFALO WY     FAIR       8  -5  55 S3        30.08S
CODY           FAIR      18  -2  41 S16       30.08F WCI   3
YELLOWSTONE LA   N/A     -2  -5  87 CALM      29.97S
IDAHO FALLS    FAIR      18   6  59 S7        30.14F WCI   9
SALMON         FLURRIES  16   8  71 N3        30.15S
BOISE          CLOUDY    28   5  37 SE13      30.16S WCI  17
SPOKANE        FAIR       9   6  88 NE6       30.23F WCI  -1
$$

REGIONAL REPORTS...ALBERTA

CITY           SKY/WX    TMP DP  RH WIND       PRES   REMARKS
$$

REGIONAL REPORTS...SASKATCHEWAN

CITY           SKY/WX    TMP DP  RH WIND       PRES   REMARKS
$$



USA.gov is the U.S. government's official web portal to all federal, state and local government web resources and services.